map of BQS home
BQS - Airport
Location
City:  Blagoveshchensk, Amurskaya, Russian Federation (Russia)
Name:Ignatyevo Airport
ICAO:UHBB
IATA:BQS

Details
Type:Airport (Aerodrome, Airfield)
Use:Public/Civil, International (customs port of entry)
Latitude:5025'32"N (50.425556)
Longitude:12724'45"E (127.412500)
Elevation:640 ft (195 m)
Variation:12.26W (WMM2015 magnetic declination)
-0.04 annual change
Runways:1
Longest:9186 × 148 ft (2800 × 45 m), paved

Time
Time Zone:UTC+9 (DST+10)

Weather
METAR:UHBB 160830Z 31001MPS 9000 2400W HZ NSC M19/M24 Q1018 R36/450250 NOSIG RMK QFE746/0995
TAF:UHBB 160745Z 1609/1709 01003MPS CAVOK
BECMG 1612/1614 29003MPS= TAF UHSS 160800Z 1609/1715 01008MPS 3100 -SHSN BKN020CB OVC100
TEMPO 1609/1615 1000 SHSN BKN004 BKN015CB
BECMG 1618/1620 9999 NSW BKN030CB
BECMG 1704/1706 32004MPS

Related Locations
Nearby:
Farthest:PSY: 12195 mi / 19626 km
Stanley (Port Stanley) [Port Stanley], FK

Find:

   beyond  
but within

Other Information
Maps:
NOTAMs:
Links:
Sources:

  
flag of Russian Federation (Russia)
flag of Amurskaya
  

Airport Diagram

Airport diagram for BQS

Airport diagram PDF from AIP of the Russian Federation

Sectional Chart

Flight Planning
at skyvector.com

Satellite Image

Google Maps Satellite view

Yandex Maps Satellite view


 

Copyright © 2004-2017 Karl L. Swartz. All rights reserved.
The Great Circle Mapper name and logo are trademarks of the Great Circle Mapper.
All other trademarks mentioned herein belong to their respective owners.
Please see credits for attibutions and further copyright information.

  Follow gcmap on Facebook Follow gcmap on Twitter Follow gcmap on Google+ GCmap on LinkedIn

hCard Microformat

Geo Microformat